Location: Hawks Ness
(60.2333°N, 1.1667°W)
Time: 23:40:47
(UTC+00:00)

Cosmos 2074 Rocket - Pass Details

Date: 22 October 2019
Orbit: 967 x 986 km, 82.9° (Epoch: 17 November)

Event Time Altitude Azimuth Distance (km) Brightness Sun altitude
Exits shadow 04:33:22 - 197° (SSW) 3,556 6.7 -18.9°
Reaches altitude 10° 04:35:35 10° 198° (SSW) 2,718 6.1 -18.6°
Maximum altitude 04:41:50 77° 286° (WNW) 1,001 3.9 -17.8°
Drops below altitude 10° 04:48:05 10° 12° (NNE) 2,725 6.6 -17.1°
Sets 04:50:36 0° 15° (NNE) 3,674 7.3 -16.7°
